Regional Weather Roundup
Issued by NWS Goodland, KS

Home | Current Version | Previous Version | Graphics & Text | Print | Product List | Glossary Off
Versions: 1 2 3 4 5 6 7 8 9 10 11 12 13 14 15 16 17 18 19 20 21 22 23 24 25 26 27 28 29 30 31 32 33 34 35 36 37 38 39 40 41 42 43 44 45 46 47 48 49 50

000
ASUS43 KGLD 201308
RWRGLD

GOODLAND FORECAST AREA HOURLY WEATHER ROUNDUP
NATIONAL WEATHER SERVICE GOODLAND KS
700 AM MDT THU JUL 20 2017

...OFFICIAL OBSERVATIONS...

CITY           SKY/WX    TMP DP  RH WIND       PRES   REMARKS
GOODLAND KS    SUNNY     68  60  75 S5        30.06R
HILL CITY KS   CLOUDY    79  63  57 S7        30.01R
IMPERIAL NEB   CLOUDY    72  60  66 NE13      30.05F
MCCOOK NEB     MOSUNNY   74  61  63 E8        30.02R
AKRON CO       CLOUDY    68  61  78 N9        30.18R
BURLINGTON CO  SUNNY     69  62  78 NW13      30.11R
LIMON CO       SUNNY     65  60  84 NW9       30.24R
$$

...UNOFFICIAL OBSERVATIONS...

CITY           SKY/WX    TMP DP  RH WIND       PRES   REMARKS
LENORA KS        N/A     73  32  22 MISG        N/A
NORTON KS      SUNNY     75  57  53 CALM      30.02
SHARON SPRINGS   N/A     71  63  75 NW7         N/A
TRENTON NEB      N/A     72  32  23 CALM        N/A
KIT CARSON CO    N/A     70  60  71 MISG        N/A
YUMA CO        FAIR      66  54  63 N9        30.13S
$$




USA.gov is the U.S. government's official web portal to all federal, state and local government web resources and services.